Location: Cabeza Gorda
(40.0667°N, 4.9667°W)
Time: 20:10:40
(UTC+00:00)

Meteor 1-15 Rocket - Pass Details

Date: 15 January 2026
Orbit: 839 x 906 km, 81.2° (Epoch: 10 February)

Event Time Altitude Azimuth Distance (km) Brightness Sun altitude
Rises 07:03:07 0° 186° (S) 3,445 7.6 -7.3°
Reaches altitude 10° 07:05:31 10° 185° (S) 2,521 6.9 -6.8°
Maximum altitude 07:11:16 85° 99° (E) 897 4.5 -5.8°
Drops below altitude 10° 07:17:10 10° 11° (N) 2,579 6.6 -4.8°
Sets 07:19:39 0° 11° (N) 3,530 7.3 -4.4°
